Satellite-Ground Cal/Val Site Overpasses Predictions

Prediction of Satellite NPP Overpassing Cal/Val Site: Antarctic Dome C

Ground Cal/Val Site Location: Latitude: -75.10, Longitude: 123.35; Satellite-Ground Site NADIR distance within 100 km.

Table of predicted overpasses for the next 14.0 days since TLE Epoch: 11/6/2021
Interval Starting Time Ending Time Minimum Distance Time Minimum Distance (km)
1 11/08/2021 14:56:25 11/08/2021 14:56:53 11/08/2021 14:56:39 28.59
2 11/09/2021 14:37:42 11/09/2021 14:38:00 11/09/2021 14:37:51 78.70
3 11/10/2021 07:39:17 11/10/2021 07:39:44 11/10/2021 07:39:30 38.61
4 11/11/2021 07:20:32 11/11/2021 07:20:52 11/11/2021 07:20:42 71.07
5 11/13/2021 15:02:51 11/13/2021 15:03:13 11/13/2021 15:03:02 66.06
6 11/14/2021 14:44:00 11/14/2021 14:44:27 11/14/2021 14:44:13 43.37
7 11/15/2021 07:45:44 11/15/2021 07:46:03 11/15/2021 07:45:53 74.10
8 11/16/2021 07:26:52 11/16/2021 07:27:20 11/16/2021 07:27:06 33.41
